Weather History for EBLB - July, 2013

Change the Weather History Date:

Tuesday, July 16, 2013

  Actual Average Record
Temperature  
Mean Temperature 60 °F -  
Max Temperature 75 °F 61 °F 82 °F (2015)
Min Temperature 45 °F 49 °F 45 °F (2013)
Degree Days  
Heating Degree Days 5    
Growing Degree Days 10 (Base 50)    
Moisture  
Dew Point 50 °F    
Average Humidity 74    
Maximum Humidity 100    
Minimum Humidity 34    
Precipitation  
Precipitation 0.00 in - - ()
Sea Level Pressure  
Sea Level Pressure 30.23 in    
Wind  
Wind Speed 2 mph ()    
Max Wind Speed 9 mph    
Max Gust Speed -    
Visibility 7.3 miles    
Events      
Averages and records for this station are not official NWS values.
T = Trace of Precipitation, MM = Missing Value Source: Averaged Metar Reports

Daily Weather History Graph

Daily Weather History Graph

Search for Another Location

Airport or City:

Trip Planner

Search our weather history database for the weather conditions in past years. The results will help you decide how hot, cold, wet, or windy it might be!

Date:

Astronomy

Jul. 16, 2013 Rise Set
Actual Time 5:41 AM CEST 9:40 PM CEST
Civil Twilight 4:59 AM CEST 10:22 PM CEST
Nautical Twilight 3:59 AM CEST 11:22 PM CEST
Astronomical Twilight 2:02 AM CEST 1:11 AM CEST
Moon 2:46 PM CEST (7/16) 12:24 AM CEST (7/16)
Length of Visible Light 17h 23m
Length of Day
15h 58m
First Quarter, 53% of the Moon is Illuminated
Jul 16
First Quarter
Jul 22
Full
Jul 29
Last Quarter
Aug 6
New
Aug 14
First Quarter

Hourly Weather History & Observations

Time (CEST) Temp. Dew Point Humidity Pressure Visibility Wind Dir Wind Speed Gust Speed Precip Events Conditions
12:00 AM 53 °F 51 °F 92% 30.26 in 6 mi 2.2 mph - -  
12:05 AM 51.8 °F 50.0 °F 94% 30.27 in 4.3 mi Variable 1.2 mph - N/A   Clear
12:16 AM 51.8 °F 50.0 °F 94% 30.24 in 5.0 mi Variable 1.2 mph - N/A   Clear
12:25 AM 51.8 °F 50.0 °F 94% 30.24 in 5.6 mi Variable 1.2 mph - N/A   Clear
12:45 AM 51.8 °F 50.0 °F 94% 30.24 in 4.3 mi Variable 1.2 mph - N/A   Clear
12:57 AM 51.8 °F 50.0 °F 94% 30.24 in 5.0 mi Variable 2.3 mph - N/A   Clear
1:00 AM 51 °F 50 °F 94% 30.26 in 4 mi 2.2 mph - -  
1:11 AM 50.0 °F 48.2 °F 94% 30.27 in 4.3 mi Calm Calm - N/A   Clear
1:22 AM 50.0 °F 48.2 °F 94% 30.27 in 5.0 mi Calm Calm - N/A   Clear
1:25 AM 50.0 °F 48.2 °F 94% 30.27 in 5.0 mi Calm Calm - N/A   Clear
1:35 AM 50.0 °F 48.2 °F 94% 30.27 in 4.3 mi Calm Calm - N/A   Clear
2:00 AM 49 °F 48 °F 97% 30.27 in 4 mi 2.2 mph - -  
2:25 AM 48.2 °F 46.4 °F 93% 30.27 in 4.3 mi Variable 3.5 mph - N/A   Clear
2:28 AM 48.2 °F 46.4 °F 93% 30.27 in 5.0 mi Variable 1.2 mph - N/A   Clear
2:34 AM 48.2 °F 46.4 °F 93% 30.27 in 4.3 mi Calm Calm - N/A   Clear
2:40 AM 48.2 °F 46.4 °F 93% 30.24 in 5.6 mi Calm Calm - N/A   Clear
2:46 AM 48.2 °F 46.4 °F 93% 30.24 in 4.3 mi Variable 1.2 mph - N/A   Clear
3:00 AM 47 °F 47 °F 99% 30.28 in 4 mi 1.2 mph - -  
3:02 AM 46.4 °F 46.4 °F 100% 30.24 in 5.0 mi Variable 2.3 mph - N/A   Clear
3:08 AM 48.2 °F 46.4 °F 93% 30.24 in 3.1 mi Variable 2.3 mph - N/A   Clear
3:25 AM 48.2 °F 46.4 °F 93% 30.24 in 3.1 mi Variable 2.3 mph - N/A   Clear
3:43 AM 46.4 °F 46.4 °F 100% 30.24 in 5.0 mi Variable 2.3 mph - N/A   Clear
3:51 AM 46.4 °F 46.4 °F 100% 30.24 in 4.3 mi Variable 2.3 mph - N/A   Clear
4:00 AM 46 °F 46 °F 97% 30.28 in 4 mi 2.2 mph - -  
4:20 AM 46.4 °F 44.6 °F 93% 30.24 in 5.0 mi Variable 2.3 mph - N/A   Clear
4:25 AM 46.4 °F 44.6 °F 93% 30.24 in 5.6 mi Variable 1.2 mph - N/A   Clear
4:37 AM 46.4 °F 44.6 °F 93% 30.24 in 4.3 mi Calm Calm - N/A   Clear
4:49 AM 46.4 °F 44.6 °F 93% 30.24 in 5.0 mi Variable 1.2 mph - N/A   Clear
5:00 AM 46 °F 45 °F 94% 30.28 in 6 mi Calm Calm - -  
5:08 AM 44.6 °F 44.6 °F 100% 30.24 in 4.3 mi Calm Calm - N/A   Clear
5:25 AM 44.6 °F 44.6 °F 100% 30.24 in 5.6 mi Calm Calm - N/A   Partly Cloudy
6:00 AM 45 °F 45 °F 99% 30.28 in 6 mi Calm Calm - -   Clear
6:25 AM 46.4 °F 46.4 °F 100% 30.24 in 5.0 mi Calm Calm - N/A   Partly Cloudy
7:00 AM 49 °F 48 °F 95% 30.27 in 6 mi Calm Calm - -   Clear
7:25 AM 53.6 °F 51.8 °F 94% 30.24 in 6.2 mi Calm Calm - N/A   Scattered Clouds
8:00 AM 56 °F 53 °F 87% 30.24 in 7 mi Calm Calm - -   Clear
8:25 AM 60.8 °F 57.2 °F 88% 30.24 in 6.2 mi Calm Calm - N/A   Scattered Clouds
9:00 AM 67 °F 61 °F 74% 30.20 in 8 mi Calm Calm - -   Clear
9:25 AM 71.6 °F 57.2 °F 60% 30.27 in 6.2 mi Calm Calm - N/A   Scattered Clouds
10:00 AM 72 °F 52 °F 38% 30.19 in 11 mi Calm Calm - -   Clear
10:25 AM 71.6 °F 51.8 °F 50% 30.27 in 6.2 mi Variable 2.3 mph - N/A   Mostly Cloudy
11:00 AM 71 °F 52 °F 40% 30.19 in 11 mi Calm Calm - -   Scattered Clouds
11:25 AM 71.6 °F 53.6 °F 53% 30.24 in 6.2 mi Variable 2.3 mph - N/A   Mostly Cloudy
12:00 PM 71 °F 51 °F 39% 30.18 in 13 mi 2.2 mph - -   Scattered Clouds
12:25 PM 71.6 °F 55.4 °F 57% 30.24 in 6.2 mi Variable 2.3 mph - N/A   Mostly Cloudy
1:00 PM 74 °F 56 °F 43% 30.17 in 13 mi 4.5 mph - -   Scattered Clouds
1:25 PM 75.2 °F 55.4 °F 50% 30.24 in 6.2 mi Variable 2.3 mph - N/A   Scattered Clouds
2:00 PM 75 °F 52 °F 34% 30.16 in 19 mi 2.2 mph - -   Scattered Clouds
2:04 PM 71.6 °F 51.8 °F 50% 30.21 in 6.2 mi NNW 5.8 mph - N/A   Scattered Clouds
2:25 PM 73.4 °F 53.6 °F 50% 30.21 in 6.2 mi Variable 2.3 mph - N/A   Scattered Clouds
3:00 PM 74 °F 53 °F 36% 30.17 in 19 mi North 6.7 mph - -   Scattered Clouds
3:25 PM 73.4 °F 51.8 °F 47% 30.21 in 6.2 mi NE 3.5 mph - N/A   Scattered Clouds
4:00 PM 73 °F 54 °F 40% 30.17 in 19 mi North 3.5 mph - -   Scattered Clouds
4:25 PM 73.4 °F 53.6 °F 50% 30.21 in 6.2 mi NE 6.9 mph - N/A   Scattered Clouds
5:00 PM 74 °F 53 °F 37% 30.16 in 19 mi NE 6.7 mph - -   Scattered Clouds
5:25 PM 73.4 °F 51.8 °F 47% 30.21 in 6.2 mi NNE 8.1 mph - N/A   Unknown
6:00 PM 73 °F 52 °F 37% 30.17 in 18 mi North 3.5 mph - -  
6:25 PM 73.4 °F 51.8 °F 47% 30.21 in 6.2 mi NNE 6.9 mph - N/A   Unknown
7:00 PM 72 °F 52 °F 38% 30.17 in 11 mi NNE 8.9 mph - -  
7:25 PM 71.6 °F 50.0 °F 46% 30.21 in 6.2 mi NE 8.1 mph - N/A   Unknown
8:00 PM 70 °F 49 °F 36% 30.18 in 19 mi NE 6.7 mph - -  
8:25 PM 68.0 °F 50.0 °F 52% 30.21 in 6.2 mi NE 5.8 mph - N/A   Unknown
9:00 PM 66 °F 50 °F 46% 30.20 in 14 mi NE 4.5 mph - -  
9:25 PM 64.4 °F 51.8 °F 64% 30.21 in 6.2 mi NE 4.6 mph - N/A   Unknown
10:00 PM 62 °F 51 °F 59% 30.22 in 12 mi NNE 4.5 mph - -  
10:25 PM 60.8 °F 51.8 °F 72% 30.21 in 6.2 mi NNE 4.6 mph - N/A   Unknown
11:00 PM 59 °F 51 °F 69% 30.23 in 11 mi NE 4.5 mph - -  
11:25 PM 59.0 °F 51.8 °F 77% 30.21 in 6.2 mi NE 5.8 mph - N/A   Unknown